カタログに戻る

FENGYUN 1C DEB

運用中SSO
NORAD 30243·DEBRIS·🇨🇳 China

打ち上げ May 10, 1999 から Taiyuan Satellite Launch Center

Loading…

次のパス (今後24時間)

TLE

最新Source: Space-Track

元期: Sep 14, 2026, 07:14 UTC

1 30243U 99025XC  26257.30200753  .00000370  00000-0  21976-3 0  9997
2 30243  98.6892 265.7823 0013145  57.5863 316.6292 14.13360083 11647

AllMySatでFENGYUN 1C DEBをリアルタイム追跡

Download on the App Store